Weather History for Queretaro Airport, Mexico

Change the Weather History Date:

Friday, October 28, 2011

  Actual Average Record
Temperature  
Mean Temperature 60 °F -  
Max Temperature 81 °F 74 °F 83 °F (2013)
Min Temperature 39 °F 49 °F 39 °F (2011)
Degree Days  
Heating Degree Days 5    
Growing Degree Days 10 (Base 50)    
Moisture  
Dew Point 41 °F    
Average Humidity 49    
Maximum Humidity 88    
Minimum Humidity 11    
Precipitation  
Precipitation 0.00 in - - ()
Sea Level Pressure  
Sea Level Pressure 30.11 in    
Wind  
Wind Speed 5 mph ()    
Max Wind Speed 20 mph    
Max Gust Speed -    
Visibility 6.9 miles    
Events      
Averages and records for this station are not official NWS values.
T = Trace of Precipitation, MM = Missing Value Source: Averaged Metar Reports

Daily Weather History Graph

Daily Weather History Graph

Search for Another Location

Airport:

Trip Planner

Search our weather history database for the weather conditions in past years. The results will help you decide how hot, cold, wet, or windy it might be!

Date:

Astronomy

Oct. 28, 2011 Rise Set
Actual Time 7:40 AM CDT 7:07 PM CDT
Civil Twilight 7:18 AM CDT 7:30 PM CDT
Nautical Twilight 6:52 AM CDT 7:56 PM CDT
Astronomical Twilight 6:26 AM CDT 8:22 PM CDT
Moon 9:37 AM CDT (10/28) 8:54 PM CDT (10/28)
Length of Visible Light 12h 12m
Length of Day
11h 26m
Waxing Crescent, 5% of the Moon is Illuminated
Oct 28
Waxing Crescent
Nov 2
First Quarter
Nov 10
Full
Nov 18
Last Quarter
Nov 25
New

Hourly Weather History & Observations

Time (CDT) Temp. Windchill Dew Point Humidity Pressure Visibility Wind Dir Wind Speed Gust Speed Precip Events Conditions
12:40 AM 64 °F - 30 °F 17% 29.63 in 6 mi North 2.2 mph - -  
12:45 AM 55.4 °F - 39.2 °F 54% 30.12 in 7.0 mi Calm Calm - N/A   Clear
1:45 AM 50.0 °F - 39.2 °F 66% 30.17 in 7.0 mi WNW 5.8 mph - N/A   Clear
2:45 AM 48.2 °F - 37.4 °F 66% 30.14 in 7.0 mi WSW 5.8 mph - N/A   Clear
3:45 AM 56 °F - 32 °F 28% 29.71 in 6 mi South 2.2 mph - -  
3:45 AM 44.6 °F 41.4 °F 37.4 °F 76% 30.18 in 7.0 mi East 5.8 mph - N/A   Clear
4:45 AM 44.6 °F - 39.2 °F 81% 30.15 in 7.0 mi Calm Calm - N/A   Clear
5:45 AM 42.8 °F - 39.2 °F 87% 30.16 in 7.0 mi Calm Calm - N/A   Clear
6:40 AM 52 °F - 33 °F 37% 29.81 in 3 mi SSE 2.2 mph - -  
6:45 AM 39.2 °F - 35.6 °F 87% 30.18 in 7.0 mi Calm Calm - N/A   Clear
7:45 AM 41.0 °F - 37.4 °F 87% 30.22 in 7.0 mi Calm Calm - N/A   Clear
8:45 AM 48.2 °F - 39.2 °F 71% 30.24 in 7.0 mi East 6.9 mph - N/A   Clear
9:40 AM 64 °F - 33 °F 20% 29.91 in 3 mi East 13.4 mph - -  
9:45 AM 57.2 °F - 42.8 °F 59% 30.24 in 7.0 mi Calm Calm - N/A   Clear
10:45 AM 64.4 °F - 46.4 °F 52% 30.26 in 7.0 mi ESE 6.9 mph - N/A   Clear
11:45 AM 69.8 °F - 41.0 °F 35% 30.28 in 7.0 mi ENE 6.9 mph - N/A   Clear
12:45 PM 73.4 °F - 41.0 °F 31% 30.28 in 7.0 mi ESE 9.2 mph - N/A   Clear
12:50 PM 76 °F - 41 °F 18% 29.89 in 6 mi ENE 4.5 mph - -  
1:45 PM 73.4 °F - 37.4 °F 27% 30.26 in 7.0 mi ENE 11.5 mph - N/A   Clear
2:45 PM 78.8 °F - 39.2 °F 24% 30.24 in 8.0 mi East 11.5 mph - N/A   Clear
3:45 PM 78.8 °F - 39.2 °F 24% 30.20 in 8.0 mi East 13.8 mph - N/A   Clear
3:55 PM 82 °F - 36 °F 11% 29.69 in 6 mi East 4.5 mph - -  
4:45 PM 78.8 °F - 39.2 °F 24% 30.20 in 8.0 mi East 16.1 mph - N/A   Clear
5:45 PM 77.0 °F - 41.0 °F 28% 30.20 in 8.0 mi NE 17.3 mph - N/A   Clear
6:30 PM 77 °F - 36 °F 13% 29.68 in 3 mi NE 13.4 mph - -  
6:45 PM 71.6 °F - 46.4 °F 41% 30.22 in 10.0 mi NNE 19.6 mph - N/A   Partly Cloudy
7:45 PM 66.2 °F - 50.0 °F 56% 30.24 in 10.0 mi NE 13.8 mph - N/A   Clear
8:45 PM 62.6 °F - 51.8 °F 68% 30.28 in 10.0 mi ENE 15.0 mph - N/A   Clear
9:30 PM 64 °F - 49 °F 48% 29.68 in 3 mi SE 20.1 mph - -  
9:45 PM 57.2 °F - 48.2 °F 72% 30.34 in 10.0 mi East 6.9 mph - N/A   Clear
10:47 PM 55.4 °F - 50.0 °F 82% 30.32 in 8.0 mi ESE 9.2 mph - N/A   Scattered Clouds
11:48 PM 53.6 °F - 50.0 °F 88% 30.33 in 6.0 mi East 5.8 mph - N/A   Scattered Clouds